OBJECT J, 42833

Orbit data source: Space-Track

You're viewing an Uncataloged Satellite

Recently launched and/or uncataloged satellites may have evolving metadata. Metadata may include but not limited to: Owner, Maufacturer, Bus, Motor, and Mission.

OBJECT J, 42833 is a satellite in SSO that was launched on Fri, 14 Jul 2017 UTC launched from the Tyuratam Missile And Space Complex (TTMTR). Unknown objects in Earth's orbit typically refer to objects detected orbiting the Earth but have not yet been identified or cataloged. These objects could be anything from previously untracked satellites, spent rocket stages, debris from satellite collisions, or even natural meteoroids temporarily captured by Earth's gravity.

Loading next visibility...
Identifier
42833, 2017-042J
Orbit
SSO
Country
Flag of TBDTBD
Related business
Manufacturer
Unknown
Mission
Non-operational spacecraft
Bus & Motor
Unknown
Mass
Unknown
Launch date (UTC)
2017-07-14 (9 years ago)
Launch vehicle
Unknown
Launch site
Tyuratam Missile And Space Complex (TTMTR)
Object type
Unknown
Shape & HBR
Unknown shape, 0.1 m
Radar Cross Section
Medium (>0.1 m² and <1 m²)

Expand to show TLE details & history
Last TLE update: 2 days ago

TLE from 2 days ago
0 OBJECT J
1 42833U 17042J   26171.44003013  .00002965  00000-0  19052-3 0  9998
2 42833  97.4363 334.2314 0007918  87.9565 272.2570 15.09153606487504
Epoch: 2026-06-20T10:33Z
TLE epoch observation values (Epoch: 2026-06-20T10:33:38.603Z)
Latitude
-0.00009°
Longitude
-92.83406°
Altitude
541.648 km
Speed
7.592 km/s
True Right ascension
22h 16m 55s
True Declination
0° 00' 00"
Sunlit
Object was in partial shadow at epoch
Visualization orbit readout
Latitude
Unknown
Longitude
Unknown
Altitude
Unknown
Speed
Unknown
Apparent Right ascension
Unknown
Apparent Declination
Unknown
Sunlit
N/A
Visualization observer readout
Local Sidereal Time
04:00:01
Azimuth
Unknown
Elevation
Unknown
Doppler factor
Unknown
Orbital elements
Apogee altitude
541.241 km
Perigee altitude
530.292 km
Semi-major axis
6,913.904 km
Eccentricity
0.00079
Inclination
97.4363°
RAAN
334.2314°
Arg. of periapsis
87.9565°
True anomaly
272.16633°
Mean anomaly
272.257°
Eccentric anomaly
272.21167°
Mean motion
3.77536 °/min
Orbital period
95.36 mins
BSTAR
0.00019052
Loading maneuver chart data...
Computing Atmospheric mass density...
Loading historical data...
Loading historical data...
Loading historical data...
Loading historical data...
Loading historical data...
Loading historical data...
Loading historical data...

Documentation

Showing up to 5 results
|